Tracking 22287 objects as of 27-Jan-2021
HD Live streaming from Space Station
objects crossing your sky now

JILIN-01 GAOFEN 3G

Track JILIN-01 GAOFEN 3G now!
10-day predictions


NORAD ID: 46459
Int'l Code: 2020-065F
Perigee: 534.1 km
Apogee: 555.3 km
Inclination: 97.5 °
Period: 95.4 minutes
Semi major axis: 6915 km
RCS: Unknown
Launch date: September 15, 2020
Source: People's Republic of China (PRC)
Launch site: Yellow Sea Launch Area, China (YSLA)
aabbcc
Your satellite tracking list
Your tracking list is empty




NASA's NSSDC Master Catalog

Two Line Element Set (TLE):
1 46459U 20065F   21027.22384774  .00000857  00000-0  57226-4 0  9996
2 46459  97.5262  86.5403 0015392 187.1664 258.3855 15.09555853 20240
Source of the keplerian elements: AFSPC